Tracking 18186 objects as of 29-March-2017
HD Live streaming from Space Station
objects crossing your sky now

STEP 2

Track STEP 2 now!
10-day predictions
STEP 2 is classified as:


NORAD ID: 23105
Int'l Code: 1994-029A
Perigee: 575.8 km
Apogee: 726.4 km
Inclination: 81.9 °
Period: 97.6 minutes
Semi major axis: 7022 km
RCS: 2.0652 m2 (large)
Launch date: May 19, 1994
Source: United States (US)
Launch site: AIR FORCE WESTERN TEST RANGE (AFWTR)
Your satellite tracking list
Your tracking list is empty





NASA's NSSDC Master Catalog

Two Line Element Set (TLE):
1 23105U 94029A   17087.85784035 +.00000557 +00000-0 +71969-4 0  9991
2 23105 081.9495 307.1410 0107237 327.5205 031.9432 14.75363599222144
Source of the keplerian elements: AFSPC